Zurück zum Katalog

STARLINK-11562

AktivKommunikationVLEO
NORAD 62918·PAYLOAD·🇺🇸 United States

Gestartet Feb 8, 2025 von Cape Canaveral Space Force Station

Loading…

Nächste Überflüge (nächste 24 Stunden)

TLE

AktuellSource: CelesTrak SupGP

Epoche: Sep 14, 2026, 21:25 UTC

1 62918C 25027M   26257.89284722 -.00035566  00000+0 -27633-3 0  2573
2 62918  43.0004 287.0137 0001501 271.9224 353.6257 15.70848140    11

Verfolge STARLINK-11562 in Echtzeit mit AllMySat

Download on the App Store